User: anonymous   Login
Location: Hancock Field Station
(44.9202°N, 120.4259°W)
Time: 21:49:35
(UTC-08:00)
Language:

Cosmos 1707 - Orbit

View from above orbital plane
View from above orbital plane
View from above satellite
View from above satellite

Ground track
Ground track

The orbit data is extracted from the following two-line orbital elements,

1 16326U 85113A   16043.92491869 +.00003239 +00000-0 +18522-3 0  9996
2 16326 082.5160 329.6148 0010726 185.3944 174.7173 15.12305093642949
Epoch (UTC): 12 February 2016 22:11:52
Eccentricity: 0.0010726
inclination: 82.5160°
perigee height: 522 km
apogee height: 536 km
right ascension of ascending node: 329.6148°
argument of perigee: 185.3944°
revolutions per day: 15.12305093
mean anomaly at epoch: 174.7173°
orbit number at epoch: 64294

The dashed part of the orbit path shows where the satellite is in the earth's shadow,  

DLR